Notices

What's New in latest Release from April 7th, 2021:

- Updated Glossary, including Speed of Maximum Gust, and Total Hourly Precipitation

- Updated national and regional climate services offices contacts and prices information

- Addition of station inventory lists for 1981-2010, 1971-2000, and 1961-1990 Normals.

If you haven't already, please take our survey and provide feedback about our website: https://eccc.sondage-survey.ca/f/LanguageSelection.aspx?s=442ca660-fcf1-47c0-95a9-59707d6fd709

Hourly Data Report for January 04, 2004

TORONTO CITY
ONTARIO

43°40'00.000" N
79°24'00.000" W
112.50 m
6158355
71508
XTO

Download Data

Hourly Data (January 2004)
Hourly Data Report for January 4, 2004
TIME
LST
Temp Definition
°C
Dew Point Definition
°C
Rel Hum Definition
%
Precip. Amount Definition
mm

Wind Dir Definition
10's deg

Wind Spd Definition
km/h
Visibility Definition
km
Stn Press Definition
kPa
Hmdx Definition


Wind Chill Definition


Weather Definition


00:00 6.4 -0.6 61   LegendMM LegendMM LegendMM 100.00     LegendNANA
01:00 5.8 -0.4 64   LegendMM LegendMM LegendMM 100.05     LegendNANA
02:00 5.1 -1.1 64   LegendMM LegendMM LegendMM 100.09     LegendNANA
03:00 3.8 -1.7 67   LegendMM LegendMM LegendMM 100.21     LegendNANA
04:00 2.8 -2.8 67   LegendMM LegendMM LegendMM 100.28     LegendNANA
05:00 2.0 -4.0 64   LegendMM LegendMM LegendMM 100.38     LegendNANA
06:00 1.5 -4.4 65   LegendMM LegendMM LegendMM 100.43     LegendNANA
07:00 1.0 -4.7 66   LegendMM LegendMM LegendMM 100.45     LegendNANA
08:00 0.9 -4.6 67   LegendMM LegendMM LegendMM 100.47     LegendNANA
09:00 0.9 -4.7 66   LegendMM LegendMM LegendMM 100.67     LegendNANA
10:00 0.8 -4.5 68   LegendMM LegendMM LegendMM 100.56     LegendNANA
11:00 1.1 -4.5 66   LegendMM LegendMM LegendMM 100.72     LegendNANA
12:00 1.5 -4.7 63   LegendMM LegendMM LegendMM 100.60     LegendNANA
13:00 1.1 -5.4 62   LegendMM LegendMM LegendMM 100.52     LegendNANA
14:00 1.0 -5.6 61   LegendMM LegendMM LegendMM 100.54     LegendNANA
15:00 0.8 -6.1 60   LegendMM LegendMM LegendMM 100.55     LegendNANA
16:00 0.2 -6.7 60   LegendMM LegendMM LegendMM 100.53     LegendNANA
17:00 -0.2 -7.3 59   LegendMM LegendMM LegendMM 100.59     LegendNANA
18:00 -0.5 -7.4 60   LegendMM LegendMM LegendMM 100.42     LegendNANA
19:00 -0.3 -7.0 61   LegendMM LegendMM LegendMM 100.53     LegendNANA
20:00 -0.3 -7.0 61   LegendMM LegendMM LegendMM 100.45     LegendNANA
21:00 -0.1 -6.0 64   LegendMM LegendMM LegendMM 100.26     LegendNANA
22:00 0.2 -5.7 64   LegendMM LegendMM LegendMM 100.27     LegendNANA
23:00 -0.3 -4.5 73   LegendMM LegendMM LegendMM 100.22     LegendNANA

Notes on Data Quality.

Legend

  • E = Estimated
  • M = Missing
  • NA = Not Available*
  • [empty] = Indicates an unobserved value
Date modified: